Year,Month,Day,Hour,Minute,Value (Times are PST for insolation in W/m^2)
2014,05,16,00,00,0.00
2014,05,16,00,01,0.00
2014,05,16,00,02,0.00
2014,05,16,00,03,0.00
2014,05,16,00,04,0.00
2014,05,16,00,05,0.00
2014,05,16,00,06,0.00
2014,05,16,00,07,0.00
2014,05,16,00,08,0.00
2014,05,16,00,09,0.00
2014,05,16,00,10,0.00
2014,05,16,00,11,0.00
2014,05,16,00,12,0.00
2014,05,16,00,13,0.00
2014,05,16,00,14,0.00
2014,05,16,00,15,0.00
2014,05,16,00,16,0.00
2014,05,16,00,17,0.00
2014,05,16,00,18,0.00
2014,05,16,00,19,0.00
2014,05,16,00,20,0.00
2014,05,16,00,21,0.00
2014,05,16,00,22,0.00
2014,05,16,00,23,0.00
2014,05,16,00,24,0.00
2014,05,16,00,25,0.00
2014,05,16,00,26,0.00
2014,05,16,00,27,0.00
2014,05,16,00,28,0.00
2014,05,16,00,29,0.00
2014,05,16,00,30,0.00
2014,05,16,00,31,0.00
2014,05,16,00,32,0.00
2014,05,16,00,33,0.00
2014,05,16,00,34,0.00
2014,05,16,00,35,0.00
2014,05,16,00,36,0.00
2014,05,16,00,37,0.00
2014,05,16,00,38,0.00
2014,05,16,00,39,0.00
2014,05,16,00,40,0.00
2014,05,16,00,41,0.00
2014,05,16,00,42,0.00
2014,05,16,00,43,0.00
2014,05,16,00,44,0.00
2014,05,16,00,45,0.00
2014,05,16,00,46,0.00
2014,05,16,00,47,0.00
2014,05,16,00,48,0.00
2014,05,16,00,49,0.00
2014,05,16,00,50,0.00
2014,05,16,00,51,0.00
2014,05,16,00,52,0.00
2014,05,16,00,53,0.00
2014,05,16,00,54,0.00
2014,05,16,00,55,0.00
2014,05,16,00,56,0.00
2014,05,16,00,57,0.00
2014,05,16,00,58,0.00
2014,05,16,00,59,0.00
2014,05,16,01,00,0.00
2014,05,16,01,01,0.00
2014,05,16,01,02,0.00
2014,05,16,01,03,0.00
2014,05,16,01,04,0.00
2014,05,16,01,05,0.00
2014,05,16,01,06,0.00
2014,05,16,01,07,0.00
2014,05,16,01,08,0.00
2014,05,16,01,09,0.00
2014,05,16,01,10,0.00
2014,05,16,01,11,0.00
2014,05,16,01,12,0.00
2014,05,16,01,13,0.00
2014,05,16,01,14,0.00
2014,05,16,01,15,0.00
2014,05,16,01,16,0.00
2014,05,16,01,17,0.00
2014,05,16,01,18,0.00
2014,05,16,01,19,0.00
2014,05,16,01,20,0.00
2014,05,16,01,21,0.00
2014,05,16,01,22,0.00
2014,05,16,01,23,0.00
2014,05,16,01,24,0.00
2014,05,16,01,25,0.00
2014,05,16,01,26,0.00
2014,05,16,01,27,0.00
2014,05,16,01,28,0.00
2014,05,16,01,29,0.00
2014,05,16,01,30,0.00
2014,05,16,01,31,0.00
2014,05,16,01,32,0.00
2014,05,16,01,33,0.00
2014,05,16,01,34,0.00
2014,05,16,01,35,0.00
2014,05,16,01,36,0.00
2014,05,16,01,37,0.00
2014,05,16,01,38,0.00
2014,05,16,01,39,0.00
2014,05,16,01,40,0.00
2014,05,16,01,41,0.00
2014,05,16,01,42,0.00
2014,05,16,01,43,0.00
2014,05,16,01,44,0.00
2014,05,16,01,45,0.00
2014,05,16,01,46,0.00
2014,05,16,01,47,0.00
2014,05,16,01,48,0.00
2014,05,16,01,49,0.00
2014,05,16,01,50,0.00
2014,05,16,01,51,0.00
2014,05,16,01,52,0.00
2014,05,16,01,53,0.00
2014,05,16,01,54,0.00
2014,05,16,01,55,0.00
2014,05,16,01,56,0.00
2014,05,16,01,57,0.00
2014,05,16,01,58,0.00
2014,05,16,01,59,0.00
2014,05,16,02,00,0.00
2014,05,16,02,01,0.00
2014,05,16,02,02,0.00
2014,05,16,02,03,0.00
2014,05,16,02,04,0.00
2014,05,16,02,05,0.00
2014,05,16,02,06,0.00
2014,05,16,02,07,0.00
2014,05,16,02,08,0.00
2014,05,16,02,09,0.00
2014,05,16,02,10,0.00
2014,05,16,02,11,0.00
2014,05,16,02,12,0.00
2014,05,16,02,13,0.00
2014,05,16,02,14,0.00
2014,05,16,02,15,0.00
2014,05,16,02,16,0.00
2014,05,16,02,17,0.00
2014,05,16,02,18,0.00
2014,05,16,02,19,0.00
2014,05,16,02,20,0.00
2014,05,16,02,21,0.00
2014,05,16,02,22,0.00
2014,05,16,02,23,0.00
2014,05,16,02,24,0.00
2014,05,16,02,25,0.00
2014,05,16,02,26,0.00
2014,05,16,02,27,0.00
2014,05,16,02,28,0.00
2014,05,16,02,29,0.00
2014,05,16,02,30,0.00
2014,05,16,02,31,0.00
2014,05,16,02,32,0.00
2014,05,16,02,33,0.00
2014,05,16,02,34,0.00
2014,05,16,02,35,0.00
2014,05,16,02,36,0.00
2014,05,16,02,37,0.00
2014,05,16,02,38,0.00
2014,05,16,02,39,0.00
2014,05,16,02,40,0.00
2014,05,16,02,41,0.00
2014,05,16,02,42,0.00
2014,05,16,02,43,0.00
2014,05,16,02,44,0.00
2014,05,16,02,45,0.00
2014,05,16,02,46,0.00
2014,05,16,02,47,0.00
2014,05,16,02,48,0.00
2014,05,16,02,49,0.00
2014,05,16,02,50,0.00
2014,05,16,02,51,0.00
2014,05,16,02,52,0.00
2014,05,16,02,53,0.00
2014,05,16,02,54,0.00
2014,05,16,02,55,0.00
2014,05,16,02,56,0.00
2014,05,16,02,57,0.00
2014,05,16,02,58,0.00
2014,05,16,02,59,0.00
2014,05,16,03,00,0.00
2014,05,16,03,01,0.00
2014,05,16,03,02,0.00
2014,05,16,03,03,0.00
2014,05,16,03,06,0.00
2014,05,16,03,07,0.00
2014,05,16,03,08,0.00
2014,05,16,03,09,0.00
2014,05,16,03,10,0.00
2014,05,16,03,11,0.00
2014,05,16,03,12,0.00
2014,05,16,03,13,0.00
2014,05,16,03,14,0.00
2014,05,16,03,15,0.00
2014,05,16,03,16,0.00
2014,05,16,03,17,0.00
2014,05,16,03,18,0.00
2014,05,16,03,19,0.00
2014,05,16,03,20,0.00
2014,05,16,03,21,0.00
2014,05,16,03,22,0.00
2014,05,16,03,23,0.00
2014,05,16,03,24,0.00
2014,05,16,03,25,0.00
2014,05,16,03,26,0.00
2014,05,16,03,27,0.00
2014,05,16,03,28,0.00
2014,05,16,03,29,0.00
2014,05,16,03,30,0.00
2014,05,16,03,31,0.00
2014,05,16,03,32,0.00
2014,05,16,03,33,0.00
2014,05,16,03,34,0.00
2014,05,16,03,35,0.00
2014,05,16,03,36,0.00
2014,05,16,03,37,0.00
2014,05,16,03,38,0.00
2014,05,16,03,39,0.00
2014,05,16,03,40,0.00
2014,05,16,03,41,0.00
2014,05,16,03,42,0.00
2014,05,16,03,43,0.00
2014,05,16,03,44,0.00
2014,05,16,03,45,0.00
2014,05,16,03,46,0.00
2014,05,16,03,47,0.00
2014,05,16,03,48,0.00
2014,05,16,03,49,0.00
2014,05,16,03,50,0.00
2014,05,16,03,51,0.00
2014,05,16,03,52,0.00
2014,05,16,03,53,0.00
2014,05,16,03,54,0.00
2014,05,16,03,55,0.00
2014,05,16,03,56,0.00
2014,05,16,03,57,0.00
2014,05,16,03,58,0.00
2014,05,16,03,59,0.00
2014,05,16,04,00,0.00
2014,05,16,04,01,0.00
2014,05,16,04,02,0.00
2014,05,16,04,03,0.00
2014,05,16,04,04,0.00
2014,05,16,04,05,0.00
2014,05,16,04,06,0.00
2014,05,16,04,07,0.00
2014,05,16,04,08,0.00
2014,05,16,04,09,0.00
2014,05,16,04,10,0.00
2014,05,16,04,11,0.00
2014,05,16,04,12,0.00
2014,05,16,04,13,0.00
2014,05,16,04,14,0.00
2014,05,16,04,15,0.00
2014,05,16,04,16,0.00
2014,05,16,04,17,0.00
2014,05,16,04,18,0.00
2014,05,16,04,19,0.00
2014,05,16,04,20,0.00
2014,05,16,04,21,0.00
2014,05,16,04,22,0.00
2014,05,16,04,23,0.00
2014,05,16,04,24,0.00
2014,05,16,04,25,0.00
2014,05,16,04,26,0.00
2014,05,16,04,27,0.00
2014,05,16,04,28,0.00
2014,05,16,04,29,0.00
2014,05,16,04,30,0.00
2014,05,16,04,31,0.00
2014,05,16,04,32,0.00
2014,05,16,04,33,0.00
2014,05,16,04,34,0.00
2014,05,16,04,35,0.00
2014,05,16,04,36,0.00
2014,05,16,04,37,0.00
2014,05,16,04,38,0.00
2014,05,16,04,39,0.00
2014,05,16,04,40,0.00
2014,05,16,04,41,0.00
2014,05,16,04,42,0.00
2014,05,16,04,43,0.00
2014,05,16,04,44,0.00
2014,05,16,04,45,0.00
2014,05,16,04,46,0.00
2014,05,16,04,47,0.00
2014,05,16,04,48,0.00
2014,05,16,04,49,0.00
2014,05,16,04,50,0.00
2014,05,16,04,51,0.00
2014,05,16,04,52,0.00
2014,05,16,04,53,0.00
2014,05,16,04,54,0.00
2014,05,16,04,55,0.00
2014,05,16,04,56,0.00
2014,05,16,04,57,0.00
2014,05,16,04,58,0.00
2014,05,16,04,59,0.00
2014,05,16,05,00,0.00
2014,05,16,05,01,0.00
2014,05,16,05,02,0.00
2014,05,16,05,03,0.00
2014,05,16,05,04,0.00
2014,05,16,05,05,0.00
2014,05,16,05,06,0.00
2014,05,16,05,07,0.00
2014,05,16,05,08,0.00
2014,05,16,05,09,0.00
2014,05,16,05,10,0.00
2014,05,16,05,11,0.00
2014,05,16,05,12,0.00
2014,05,16,05,13,0.00
2014,05,16,05,14,0.00
2014,05,16,05,15,0.00
2014,05,16,05,16,0.00
2014,05,16,05,17,0.00
2014,05,16,05,18,0.00
2014,05,16,05,19,0.00
2014,05,16,05,20,0.00
2014,05,16,05,21,0.00
2014,05,16,05,22,0.00
2014,05,16,05,23,0.00
2014,05,16,05,24,0.00
2014,05,16,05,25,0.00
2014,05,16,05,26,0.00
2014,05,16,05,27,0.00
2014,05,16,05,28,0.00
2014,05,16,05,29,0.00
2014,05,16,05,30,0.00
2014,05,16,05,31,0.00
2014,05,16,05,32,0.00
2014,05,16,05,33,0.00
2014,05,16,05,34,0.00
2014,05,16,05,35,0.00
2014,05,16,05,36,0.00
2014,05,16,05,37,0.00
2014,05,16,05,38,1.10
2014,05,16,05,39,5.00
2014,05,16,05,40,5.00
2014,05,16,05,41,5.00
2014,05,16,05,42,5.00
2014,05,16,05,43,6.30
2014,05,16,05,44,7.00
2014,05,16,05,45,7.00
2014,05,16,05,46,7.00
2014,05,16,05,47,8.90
2014,05,16,05,48,9.00
2014,05,16,05,49,9.00
2014,05,16,05,50,9.60
2014,05,16,05,51,11.00
2014,05,16,05,52,11.00
2014,05,16,05,53,11.00
2014,05,16,05,54,11.60
2014,05,16,05,55,12.00
2014,05,16,05,56,12.00
2014,05,16,05,57,12.00
2014,05,16,05,58,12.10
2014,05,16,05,59,14.00
2014,05,16,06,00,14.00
2014,05,16,06,01,14.00
2014,05,16,06,02,14.00
2014,05,16,06,03,14.90
2014,05,16,06,04,16.00
2014,05,16,06,05,16.00
2014,05,16,06,06,17.40
2014,05,16,06,07,18.00
2014,05,16,06,08,18.00
2014,05,16,06,09,18.00
2014,05,16,06,10,18.10
2014,05,16,06,11,19.00
2014,05,16,06,12,19.60
2014,05,16,06,13,21.80
2014,05,16,06,14,23.00
2014,05,16,06,15,24.10
2014,05,16,06,16,25.60
2014,05,16,06,17,27.50
2014,05,16,06,18,29.60
2014,05,16,06,19,34.50
2014,05,16,06,20,39.00
2014,05,16,06,21,42.50
2014,05,16,06,22,48.00
2014,05,16,06,23,51.90
2014,05,16,06,24,54.80
2014,05,16,06,25,56.90
2014,05,16,06,26,59.10
2014,05,16,06,27,60.00
2014,05,16,06,28,63.50
2014,05,16,06,29,65.00
2014,05,16,06,30,65.00
2014,05,16,06,31,65.10
2014,05,16,06,32,67.30
2014,05,16,06,33,69.60
2014,05,16,06,34,72.00
2014,05,16,06,35,74.80
2014,05,16,06,36,79.90
2014,05,16,06,37,82.00
2014,05,16,06,38,84.90
2014,05,16,06,39,87.40
2014,05,16,06,40,89.60
2014,05,16,06,41,90.00
2014,05,16,06,42,88.00
2014,05,16,06,43,85.70
2014,05,16,06,44,84.00
2014,05,16,06,45,84.00
2014,05,16,06,46,86.40
2014,05,16,06,47,91.40
2014,05,16,06,48,95.00
2014,05,16,06,49,98.90
2014,05,16,06,50,102.80
2014,05,16,06,51,91.20
2014,05,16,06,52,108.60
2014,05,16,06,53,111.30
2014,05,16,06,54,118.40
2014,05,16,06,55,121.40
2014,05,16,06,56,123.00
2014,05,16,06,57,121.90
2014,05,16,06,58,121.30
2014,05,16,06,59,120.20
2014,05,16,07,00,110.80
2014,05,16,07,01,114.70
2014,05,16,07,02,129.20
2014,05,16,07,03,142.20
2014,05,16,07,04,150.90
2014,05,16,07,05,155.00
2014,05,16,07,06,155.20
2014,05,16,07,07,157.20
2014,05,16,07,08,160.00
2014,05,16,07,09,160.90
2014,05,16,07,10,162.00
2014,05,16,07,11,163.90
2014,05,16,07,12,167.90
2014,05,16,07,13,170.60
2014,05,16,07,14,167.60
2014,05,16,07,15,154.30
2014,05,16,07,16,106.90
2014,05,16,07,17,83.00
2014,05,16,07,18,78.40
2014,05,16,07,19,77.00
2014,05,16,07,20,77.00
2014,05,16,07,21,78.10
2014,05,16,07,22,81.60
2014,05,16,07,23,86.80
2014,05,16,07,24,99.10
2014,05,16,07,25,98.40
2014,05,16,07,26,127.60
2014,05,16,07,27,146.90
2014,05,16,07,28,139.50
2014,05,16,07,29,144.60
2014,05,16,07,30,113.00
2014,05,16,07,31,95.90
2014,05,16,07,32,94.90
2014,05,16,07,33,90.00
2014,05,16,07,34,89.40
2014,05,16,07,35,92.40
2014,05,16,07,36,93.00
2014,05,16,07,37,93.60
2014,05,16,07,38,110.00
2014,05,16,07,39,136.60
2014,05,16,07,40,110.20
2014,05,16,07,41,123.20
2014,05,16,07,42,135.70
2014,05,16,07,43,134.10
2014,05,16,07,44,159.80
2014,05,16,07,45,187.80
2014,05,16,07,46,185.40
2014,05,16,07,47,209.80
2014,05,16,07,48,244.10
2014,05,16,07,49,281.80
2014,05,16,07,50,320.50
2014,05,16,07,51,335.80
2014,05,16,07,52,345.40
2014,05,16,07,53,353.40
2014,05,16,07,54,353.90
2014,05,16,07,55,353.00
2014,05,16,07,56,352.30
2014,05,16,07,57,347.30
2014,05,16,07,58,352.00
2014,05,16,07,59,353.00
2014,05,16,08,00,349.30
2014,05,16,08,01,327.80
2014,05,16,08,02,303.50
2014,05,16,08,03,281.60
2014,05,16,08,04,261.20
2014,05,16,08,05,261.20
2014,05,16,08,06,285.00
2014,05,16,08,07,329.10
2014,05,16,08,08,351.40
2014,05,16,08,09,359.00
2014,05,16,08,10,364.00
2014,05,16,08,11,365.10
2014,05,16,08,12,347.00
2014,05,16,08,13,365.60
2014,05,16,08,14,374.00
2014,05,16,08,15,374.90
2014,05,16,08,16,377.10
2014,05,16,08,17,378.00
2014,05,16,08,18,379.40
2014,05,16,08,19,384.00
2014,05,16,08,20,386.80
2014,05,16,08,21,393.80
2014,05,16,08,22,396.00
2014,05,16,08,23,396.00
2014,05,16,08,24,396.00
2014,05,16,08,25,400.80
2014,05,16,08,26,408.00
2014,05,16,08,27,409.60
2014,05,16,08,28,411.00
2014,05,16,08,29,415.90
2014,05,16,08,30,417.20
2014,05,16,08,31,424.20
2014,05,16,08,32,425.60
2014,05,16,08,33,438.10
2014,05,16,08,34,440.20
2014,05,16,08,35,446.50
2014,05,16,08,36,450.00
2014,05,16,08,37,454.00
2014,05,16,08,38,447.50
2014,05,16,08,39,456.00
2014,05,16,08,40,444.20
2014,05,16,08,41,474.80
2014,05,16,08,42,482.50
2014,05,16,08,43,454.60
2014,05,16,08,44,435.10
2014,05,16,08,45,411.80
2014,05,16,08,46,416.70
2014,05,16,08,47,441.00
2014,05,16,08,48,428.40
2014,05,16,08,49,430.40
2014,05,16,08,50,457.10
2014,05,16,08,51,470.80
2014,05,16,08,52,482.60
2014,05,16,08,53,485.00
2014,05,16,08,54,474.90
2014,05,16,08,55,464.00
2014,05,16,08,56,477.50
2014,05,16,08,57,493.90
2014,05,16,08,58,500.00
2014,05,16,08,59,485.00
2014,05,16,09,00,507.50
2014,05,16,09,01,528.00
2014,05,16,09,02,531.70
2014,05,16,09,03,535.20
2014,05,16,09,04,537.70
2014,05,16,09,05,541.20
2014,05,16,09,06,547.50
2014,05,16,09,07,550.40
2014,05,16,09,08,552.50
2014,05,16,09,09,556.50
2014,05,16,09,10,563.40
2014,05,16,09,11,531.50
2014,05,16,09,12,434.60
2014,05,16,09,13,401.00
2014,05,16,09,14,548.20
2014,05,16,09,15,588.60
2014,05,16,09,16,593.70
2014,05,16,09,17,591.50
2014,05,16,09,18,586.80
2014,05,16,09,19,578.00
2014,05,16,09,20,578.00
2014,05,16,09,21,580.70
2014,05,16,09,22,581.80
2014,05,16,09,23,580.00
2014,05,16,09,24,580.00
2014,05,16,09,25,580.00
2014,05,16,09,26,580.00
2014,05,16,09,27,593.30
2014,05,16,09,28,593.30
2014,05,16,09,29,585.00
2014,05,16,09,30,574.30
2014,05,16,09,31,573.60
2014,05,16,09,32,582.90
2014,05,16,09,33,587.50
2014,05,16,09,34,600.30
2014,05,16,09,35,588.00
2014,05,16,09,36,570.80
2014,05,16,09,37,604.00
2014,05,16,09,38,618.60
2014,05,16,09,39,615.00
2014,05,16,09,40,575.60
2014,05,16,09,41,582.70
2014,05,16,09,42,595.20
2014,05,16,09,43,599.70
2014,05,16,09,44,595.50
2014,05,16,09,45,588.60
2014,05,16,09,46,603.10
2014,05,16,09,47,629.30
2014,05,16,09,48,615.30
2014,05,16,09,49,588.10
2014,05,16,09,50,548.00
2014,05,16,09,51,555.00
2014,05,16,09,52,562.00
2014,05,16,09,53,570.40
2014,05,16,09,54,567.80
2014,05,16,09,55,565.10
2014,05,16,09,56,562.80
2014,05,16,09,57,553.10
2014,05,16,09,58,566.00
2014,05,16,09,59,606.10
2014,05,16,10,00,651.90
2014,05,16,10,01,657.80
2014,05,16,10,02,685.20
2014,05,16,10,03,713.70
2014,05,16,10,04,724.00
2014,05,16,10,05,724.00
2014,05,16,10,06,724.00
2014,05,16,10,07,724.00
2014,05,16,10,08,724.00
2014,05,16,10,09,649.60
2014,05,16,10,10,676.90
2014,05,16,10,11,626.90
2014,05,16,10,12,624.00
2014,05,16,10,13,624.00
2014,05,16,10,14,639.30
2014,05,16,10,15,696.00
2014,05,16,10,16,731.40
2014,05,16,10,17,739.00
2014,05,16,10,18,728.10
2014,05,16,10,19,727.30
2014,05,16,10,20,730.60
2014,05,16,10,21,739.10
2014,05,16,10,22,731.20
2014,05,16,10,23,727.80
2014,05,16,10,24,737.40
2014,05,16,10,25,735.90
2014,05,16,10,26,735.20
2014,05,16,10,27,734.20
2014,05,16,10,28,745.70
2014,05,16,10,29,756.50
2014,05,16,10,30,763.10
2014,05,16,10,31,765.00
2014,05,16,10,32,771.30
2014,05,16,10,33,778.30
2014,05,16,10,34,779.20
2014,05,16,10,35,780.80
2014,05,16,10,36,784.50
2014,05,16,10,37,786.70
2014,05,16,10,38,790.20
2014,05,16,10,39,782.00
2014,05,16,10,40,776.90
2014,05,16,10,41,779.00
2014,05,16,10,42,725.00
2014,05,16,10,43,679.80
2014,05,16,10,44,659.80
2014,05,16,10,45,670.20
2014,05,16,10,46,622.40
2014,05,16,10,47,636.00
2014,05,16,10,48,609.40
2014,05,16,10,49,647.50
2014,05,16,10,50,676.00
2014,05,16,10,51,707.90
2014,05,16,10,52,735.90
2014,05,16,10,53,749.50
2014,05,16,10,54,755.30
2014,05,16,10,55,784.40
2014,05,16,10,56,774.70
2014,05,16,10,57,806.40
2014,05,16,10,58,822.10
2014,05,16,10,59,828.40
2014,05,16,11,00,811.80
2014,05,16,11,01,768.00
2014,05,16,11,02,740.00
2014,05,16,11,03,740.00
2014,05,16,11,04,662.40
2014,05,16,11,05,682.60
2014,05,16,11,06,745.10
2014,05,16,11,07,732.20
2014,05,16,11,08,728.00
2014,05,16,11,09,606.20
2014,05,16,11,10,242.10
2014,05,16,11,11,279.20
2014,05,16,11,12,369.70
2014,05,16,11,13,452.60
2014,05,16,11,14,473.80
2014,05,16,11,15,511.80
2014,05,16,11,16,445.40
2014,05,16,11,17,491.20
2014,05,16,11,18,575.50
2014,05,16,11,19,596.30
2014,05,16,11,20,623.60
2014,05,16,11,21,646.80
2014,05,16,11,22,666.00
2014,05,16,11,23,712.50
2014,05,16,11,24,736.20
2014,05,16,11,25,778.40
2014,05,16,11,26,827.00
2014,05,16,11,27,831.60
2014,05,16,11,28,831.70
2014,05,16,11,29,840.40
2014,05,16,11,30,810.00
2014,05,16,11,31,812.80
2014,05,16,11,32,816.80
2014,05,16,11,33,797.10
2014,05,16,11,34,798.30
2014,05,16,11,35,815.70
2014,05,16,11,36,832.30
2014,05,16,11,37,837.20
2014,05,16,11,38,837.00
2014,05,16,11,39,857.50
2014,05,16,11,40,847.30
2014,05,16,11,41,832.00
2014,05,16,11,42,838.00
2014,05,16,11,43,875.80
2014,05,16,11,44,908.00
2014,05,16,11,45,921.00
2014,05,16,11,46,921.00
2014,05,16,11,47,897.70
2014,05,16,11,48,886.00
2014,05,16,11,49,832.00
2014,05,16,11,50,792.80
2014,05,16,11,51,799.30
2014,05,16,11,52,825.80
2014,05,16,11,53,826.20
2014,05,16,11,54,805.50
2014,05,16,11,55,834.00
2014,05,16,11,56,865.00
2014,05,16,11,57,883.90
2014,05,16,11,58,895.70
2014,05,16,11,59,884.80
2014,05,16,12,00,855.30
2014,05,16,12,01,850.10
2014,05,16,12,02,871.20
2014,05,16,12,03,882.80
2014,05,16,12,04,885.50
2014,05,16,12,05,884.00
2014,05,16,12,06,889.70
2014,05,16,12,07,890.70
2014,05,16,12,08,886.00
2014,05,16,12,09,886.00
2014,05,16,12,10,927.10
2014,05,16,12,11,935.50
2014,05,16,12,12,914.20
2014,05,16,12,13,933.00
2014,05,16,12,14,933.80
2014,05,16,12,15,937.60
2014,05,16,12,16,944.20
2014,05,16,12,17,941.80
2014,05,16,12,18,925.00
2014,05,16,12,19,900.40
2014,05,16,12,20,885.40
2014,05,16,12,21,830.50
2014,05,16,12,22,812.00
2014,05,16,12,23,812.00
2014,05,16,12,24,809.30
2014,05,16,12,25,784.80
2014,05,16,12,26,776.50
2014,05,16,12,27,766.00
2014,05,16,12,28,820.00
2014,05,16,12,29,862.00
2014,05,16,12,30,838.00
2014,05,16,12,31,931.00
2014,05,16,12,32,981.00
2014,05,16,12,33,936.00
2014,05,16,12,34,958.40
2014,05,16,12,35,973.80
2014,05,16,12,36,971.00
2014,05,16,12,37,966.00
2014,05,16,12,38,962.00
2014,05,16,12,39,956.40
2014,05,16,12,40,951.00
2014,05,16,12,41,951.00
2014,05,16,12,42,951.00
2014,05,16,12,43,951.00
2014,05,16,12,44,600.30
2014,05,16,12,45,559.00
2014,05,16,12,46,599.40
2014,05,16,12,47,982.30
2014,05,16,12,48,981.90
2014,05,16,12,49,992.50
2014,05,16,12,50,992.60
2014,05,16,12,51,976.80
2014,05,16,12,52,965.00
2014,05,16,12,53,868.90
2014,05,16,12,54,851.00
2014,05,16,12,55,850.60
2014,05,16,12,56,849.10
2014,05,16,12,57,851.50
2014,05,16,12,58,856.20
2014,05,16,12,59,862.10
2014,05,16,13,00,856.10
2014,05,16,13,01,869.50
2014,05,16,13,02,885.20
2014,05,16,13,03,890.30
2014,05,16,13,04,866.50
2014,05,16,13,05,840.20
2014,05,16,13,06,817.00
2014,05,16,13,07,814.00
2014,05,16,13,08,807.20
2014,05,16,13,09,810.50
2014,05,16,13,10,810.70
2014,05,16,13,11,808.40
2014,05,16,13,12,846.90
2014,05,16,13,13,865.50
2014,05,16,13,14,882.00
2014,05,16,13,15,889.00
2014,05,16,13,16,844.80
2014,05,16,13,17,828.70
2014,05,16,13,18,792.90
2014,05,16,13,19,799.70
2014,05,16,13,20,797.40
2014,05,16,13,21,794.00
2014,05,16,13,22,791.00
2014,05,16,13,23,777.70
2014,05,16,13,24,760.80
2014,05,16,13,25,752.70
2014,05,16,13,26,750.30
2014,05,16,13,27,756.60
2014,05,16,13,28,746.30
2014,05,16,13,29,771.50
2014,05,16,13,30,778.50
2014,05,16,13,31,834.60
2014,05,16,13,32,872.10
2014,05,16,13,33,906.00
2014,05,16,13,34,924.20
2014,05,16,13,35,923.00
2014,05,16,13,36,919.90
2014,05,16,13,37,929.80
2014,05,16,13,38,924.00
2014,05,16,13,39,916.80
2014,05,16,13,40,895.50
2014,05,16,13,41,880.50
2014,05,16,13,42,849.00
2014,05,16,13,43,844.20
2014,05,16,13,44,828.10
2014,05,16,13,45,815.00
2014,05,16,13,46,811.10
2014,05,16,13,47,816.20
2014,05,16,13,48,807.10
2014,05,16,13,49,792.20
2014,05,16,13,50,789.00
2014,05,16,13,51,773.10
2014,05,16,13,52,777.50
2014,05,16,13,53,782.00
2014,05,16,13,54,782.00
2014,05,16,13,55,777.10
2014,05,16,13,56,768.00
2014,05,16,13,57,768.00
2014,05,16,13,58,752.40
2014,05,16,13,59,744.00
2014,05,16,14,00,744.00
2014,05,16,14,01,744.00
2014,05,16,14,02,745.90
2014,05,16,14,03,780.40
2014,05,16,14,04,760.80
2014,05,16,14,05,748.20
2014,05,16,14,06,773.00
2014,05,16,14,07,776.20
2014,05,16,14,08,778.30
2014,05,16,14,09,774.00
2014,05,16,14,10,772.70
2014,05,16,14,11,776.20
2014,05,16,14,12,777.00
2014,05,16,14,13,773.00
2014,05,16,14,14,690.90
2014,05,16,14,15,661.00
2014,05,16,14,16,699.30
2014,05,16,14,17,799.70
2014,05,16,14,18,807.20
2014,05,16,14,19,805.00
2014,05,16,14,20,799.20
2014,05,16,14,21,784.70
2014,05,16,14,22,796.50
2014,05,16,14,23,790.10
2014,05,16,14,24,813.20
2014,05,16,14,25,831.00
2014,05,16,14,26,824.00
2014,05,16,14,27,784.60
2014,05,16,14,28,768.80
2014,05,16,14,29,704.40
2014,05,16,14,30,654.70
2014,05,16,14,31,688.60
2014,05,16,14,32,713.00
2014,05,16,14,33,721.00
2014,05,16,14,34,741.80
2014,05,16,14,35,746.90
2014,05,16,14,36,736.20
2014,05,16,14,37,746.60
2014,05,16,14,38,743.00
2014,05,16,14,39,739.50
2014,05,16,14,40,746.80
2014,05,16,14,41,753.60
2014,05,16,14,42,697.30
2014,05,16,14,43,601.40
2014,05,16,14,44,575.00
2014,05,16,14,45,727.20
2014,05,16,14,46,754.00
2014,05,16,14,47,754.00
2014,05,16,14,48,750.80
2014,05,16,14,49,741.20
2014,05,16,14,50,755.90
2014,05,16,14,51,765.00
2014,05,16,14,52,765.00
2014,05,16,14,53,742.80
2014,05,16,14,54,718.20
2014,05,16,14,55,716.20
2014,05,16,14,56,721.20
2014,05,16,14,57,722.00
2014,05,16,14,58,752.00
2014,05,16,14,59,752.00
2014,05,16,15,00,752.00
2014,05,16,15,01,712.80
2014,05,16,15,02,640.00
2014,05,16,15,03,723.00
2014,05,16,15,04,791.00
2014,05,16,15,05,791.00
2014,05,16,15,06,608.00
2014,05,16,15,07,547.00
2014,05,16,15,08,547.00
2014,05,16,15,09,540.30
2014,05,16,15,10,479.60
2014,05,16,15,11,473.80
2014,05,16,15,12,465.40
2014,05,16,15,13,481.00
2014,05,16,15,14,505.40
2014,05,16,15,15,513.00
2014,05,16,15,16,513.00
2014,05,16,15,17,794.20
2014,05,16,15,18,888.00
2014,05,16,15,19,530.80
2014,05,16,15,20,536.40
2014,05,16,15,21,756.00
2014,05,16,15,22,756.00
2014,05,16,15,23,756.00
2014,05,16,15,24,756.00
2014,05,16,15,25,776.00
2014,05,16,15,26,748.60
2014,05,16,15,27,692.50
2014,05,16,15,28,682.00
2014,05,16,15,29,585.10
2014,05,16,15,30,512.90
2014,05,16,15,31,512.30
2014,05,16,15,32,533.00
2014,05,16,15,33,533.00
2014,05,16,15,34,577.10
2014,05,16,15,35,659.00
2014,05,16,15,36,636.00
2014,05,16,15,37,633.40
2014,05,16,15,38,647.00
2014,05,16,15,39,647.00
2014,05,16,15,40,647.00
2014,05,16,15,41,634.30
2014,05,16,15,42,383.50
2014,05,16,15,43,417.40
2014,05,16,15,44,434.80
2014,05,16,15,45,431.00
2014,05,16,15,46,531.50
2014,05,16,15,47,630.00
2014,05,16,15,48,645.80
2014,05,16,15,49,662.40
2014,05,16,15,50,659.00
2014,05,16,15,51,536.60
2014,05,16,15,52,539.30
2014,05,16,15,53,628.90
2014,05,16,15,54,673.00
2014,05,16,15,55,673.00
2014,05,16,15,56,674.40
2014,05,16,15,57,691.80
2014,05,16,15,58,697.00
2014,05,16,15,59,684.00
2014,05,16,16,00,604.20
2014,05,16,16,01,587.60
2014,05,16,16,02,592.00
2014,05,16,16,03,556.80
2014,05,16,16,04,525.80
2014,05,16,16,05,556.20
2014,05,16,16,06,547.10
2014,05,16,16,07,577.90
2014,05,16,16,08,583.10
2014,05,16,16,09,637.50
2014,05,16,16,10,657.20
2014,05,16,16,11,595.60
2014,05,16,16,12,564.00
2014,05,16,16,13,607.30
2014,05,16,16,14,652.00
2014,05,16,16,15,712.30
2014,05,16,16,16,715.00
2014,05,16,16,17,659.80
2014,05,16,16,18,494.00
2014,05,16,16,19,494.00
2014,05,16,16,20,494.00
2014,05,16,16,21,549.80
2014,05,16,16,22,587.00
2014,05,16,16,23,623.80
2014,05,16,16,24,637.70
2014,05,16,16,25,638.00
2014,05,16,16,26,375.80
2014,05,16,16,27,381.20
2014,05,16,16,28,334.80
2014,05,16,16,29,325.00
2014,05,16,16,30,314.60
2014,05,16,16,31,299.20
2014,05,16,16,32,297.00
2014,05,16,16,33,295.00
2014,05,16,16,34,294.00
2014,05,16,16,35,272.80
2014,05,16,16,36,252.90
2014,05,16,16,37,234.50
2014,05,16,16,38,219.00
2014,05,16,16,39,209.80
2014,05,16,16,40,204.60
2014,05,16,16,41,200.60
2014,05,16,16,42,199.00
2014,05,16,16,43,195.40
2014,05,16,16,44,189.50
2014,05,16,16,45,181.20
2014,05,16,16,46,172.20
2014,05,16,16,47,163.40
2014,05,16,16,48,157.70
2014,05,16,16,49,155.00
2014,05,16,16,50,153.20
2014,05,16,16,51,148.60
2014,05,16,16,52,149.40
2014,05,16,16,53,153.20
2014,05,16,16,54,155.00
2014,05,16,16,55,153.60
2014,05,16,16,56,150.00
2014,05,16,16,57,146.40
2014,05,16,16,58,144.10
2014,05,16,16,59,144.00
2014,05,16,17,00,144.00
2014,05,16,17,01,143.10
2014,05,16,17,02,139.60
2014,05,16,17,03,134.80
2014,05,16,17,04,131.00
2014,05,16,17,05,128.20
2014,05,16,17,06,127.00
2014,05,16,17,07,127.00
2014,05,16,17,08,121.10
2014,05,16,17,09,116.20
2014,05,16,17,10,110.50